TSO876 URSS-HESH

Flight info

Callsign TSO876
Flight time N/A
Altitude 39000
Route TABAN1D TABAN N166 TUDEK/N0477F390 UR114 TBN/N0479F400 UW88 EZS UW701 GAZ/N0485F410 UB36 TUSYR/N0486F400 B544 ALE/N0487F410 Q538 KTN R785 ZELAF M690 ELOXI/N0490F400 M690 SESMO M319 ULINA M690 NOVPA NOVPA2G
Aircraft B772/H-SDE2E3FGHIJ5LORVWXY/LB1D1

Departure

Time N/A
Airport Sochi International Airport (URSS)

Arrival

Time 2026-04-28 11:51
Airport Sharm El Sheikh International Airport (HESH)
Time Latitude Longitude Altitude Speed Heading
2026-04-28 10:11 38.15297 38.23107 40050 ft 460 kts 194°
2026-04-28 10:11 38.12139 38.22290 40050 ft 460 kts 194°
2026-04-28 10:12 38.05889 38.20677 40048 ft 461 kts 194°
2026-04-28 10:12 37.99591 38.19055 40059 ft 460 kts 194°
2026-04-28 10:13 37.93299 38.17437 40042 ft 461 kts 194°
2026-04-28 10:13 37.87003 38.15820 40028 ft 461 kts 194°
2026-04-28 10:14 37.80724 38.14211 40005 ft 461 kts 194°
2026-04-28 10:14 37.74448 38.12605 39982 ft 461 kts 194°
2026-04-28 10:15 37.69290 38.11287 39968 ft 461 kts 194°
2026-04-28 10:15 37.63173 38.09727 39971 ft 462 kts 194°
2026-04-28 10:16 37.57113 38.08184 39971 ft 460 kts 194°
2026-04-28 10:16 37.51178 38.06676 39965 ft 461 kts 194°
2026-04-28 10:17 37.45303 38.05185 39967 ft 461 kts 195°
2026-04-28 10:17 37.39014 38.03591 39968 ft 461 kts 194°
2026-04-28 10:18 37.32753 38.02007 39960 ft 462 kts 195°
2026-04-28 10:18 37.26445 38.00415 39955 ft 463 kts 195°
2026-04-28 10:19 37.20121 37.98820 39953 ft 466 kts 194°
2026-04-28 10:19 37.13712 37.97205 39938 ft 472 kts 194°
2026-04-28 10:20 37.07287 37.95591 39929 ft 476 kts 194°
2026-04-28 10:20 37.00733 37.93946 39925 ft 480 kts 194°
2026-04-28 10:21 36.94174 37.92304 39928 ft 482 kts 194°
2026-04-28 10:21 36.87610 37.90664 39921 ft 483 kts 194°
2026-04-28 10:22 36.81017 37.89019 39918 ft 484 kts 195°
2026-04-28 10:22 36.74415 37.87375 39914 ft 484 kts 195°
2026-04-28 10:23 36.68317 37.85859 39921 ft 484 kts 195°
2026-04-28 10:23 36.62489 37.84412 39925 ft 485 kts 195°
2026-04-28 10:24 36.55851 37.82768 39909 ft 485 kts 195°
2026-04-28 10:24 36.49661 37.81237 39930 ft 484 kts 195°
2026-04-28 10:25 36.43303 37.79667 39923 ft 484 kts 195°
2026-04-28 10:25 36.36671 37.78202 39922 ft 485 kts 193°
2026-04-28 10:26 36.29993 37.76962 39921 ft 485 kts 192°
2026-04-28 10:26 36.23313 37.75726 39896 ft 486 kts 192°
2026-04-28 10:27 36.16655 37.74497 39912 ft 486 kts 192°
2026-04-28 10:27 36.09973 37.73265 39918 ft 486 kts 192°
2026-04-28 10:28 36.03283 37.72033 39899 ft 486 kts 192°
2026-04-28 10:29 35.93248 37.70190 39904 ft 486 kts 193°
2026-04-28 10:29 35.86588 37.68970 39910 ft 486 kts 193°
2026-04-28 10:30 35.79893 37.67745 39919 ft 486 kts 193°
2026-04-28 10:30 35.73466 37.66571 39908 ft 486 kts 193°
2026-04-28 10:31 35.67170 37.65423 39916 ft 485 kts 193°
2026-04-28 10:31 35.60493 37.64207 39920 ft 485 kts 193°
2026-04-28 10:32 35.55291 37.63262 39933 ft 486 kts 193°
2026-04-28 10:32 35.48678 37.62061 39921 ft 486 kts 193°
2026-04-28 10:33 35.41986 37.60849 39931 ft 486 kts 193°
2026-04-28 10:33 35.35278 37.59635 39931 ft 486 kts 193°
2026-04-28 10:34 35.28589 37.58427 39940 ft 486 kts 193°
2026-04-28 10:34 35.21910 37.57223 39943 ft 486 kts 193°
2026-04-28 10:35 35.15239 37.56022 39946 ft 486 kts 193°
2026-04-28 10:35 35.08521 37.54815 39948 ft 486 kts 193°
2026-04-28 10:36 35.01840 37.53617 39953 ft 486 kts 193°
2026-04-28 10:36 34.95139 37.52416 39964 ft 486 kts 193°
2026-04-28 10:37 34.88487 37.51227 39976 ft 486 kts 193°
2026-04-28 10:37 34.81767 37.50027 39985 ft 486 kts 193°
2026-04-28 10:38 34.75199 37.48856 39975 ft 487 kts 193°
2026-04-28 10:38 34.68808 37.47720 39978 ft 486 kts 194°
2026-04-28 10:39 34.62105 37.46529 39971 ft 486 kts 193°
2026-04-28 10:39 34.56810 37.45589 39979 ft 487 kts 193°
2026-04-28 10:40 34.50151 37.44410 39968 ft 486 kts 194°
2026-04-28 10:40 34.43705 37.43270 39975 ft 486 kts 194°
2026-04-28 10:41 34.36964 37.42079 39978 ft 486 kts 194°
2026-04-28 10:41 34.30271 37.40899 39982 ft 486 kts 194°
2026-04-28 10:42 34.23607 37.39726 39979 ft 486 kts 194°
2026-04-28 10:42 34.16898 37.38547 39986 ft 486 kts 194°
2026-04-28 10:43 34.10215 37.37375 39991 ft 486 kts 194°
2026-04-28 10:43 34.03537 37.36205 39997 ft 486 kts 194°
2026-04-28 10:44 33.96831 37.35032 39997 ft 485 kts 194°
2026-04-28 10:44 33.90169 37.33869 39998 ft 486 kts 193°
2026-04-28 10:45 33.83477 37.32702 39999 ft 486 kts 193°
2026-04-28 10:45 33.77758 37.31707 39999 ft 487 kts 193°
2026-04-28 10:46 33.71281 37.30580 39994 ft 487 kts 193°
2026-04-28 10:46 33.64703 37.29439 39989 ft 487 kts 193°
2026-04-28 10:47 33.58008 37.28278 39991 ft 487 kts 193°
2026-04-28 10:47 33.51596 37.27169 39991 ft 486 kts 193°
2026-04-28 10:48 33.45183 37.26061 39989 ft 486 kts 194°
2026-04-28 10:48 33.38411 37.24893 39983 ft 486 kts 194°
2026-04-28 10:49 33.31697 37.23736 39983 ft 487 kts 194°
2026-04-28 10:49 33.25012 37.22586 39984 ft 487 kts 194°
2026-04-28 10:50 33.18294 37.21433 39982 ft 487 kts 194°
2026-04-28 10:50 33.11596 37.20285 39975 ft 487 kts 194°
2026-04-28 10:51 33.04886 37.19136 39975 ft 487 kts 194°
2026-04-28 10:51 32.98224 37.17997 39977 ft 486 kts 194°
2026-04-28 10:52 32.91533 37.16856 39977 ft 486 kts 194°
2026-04-28 10:52 32.84818 37.15712 39977 ft 486 kts 194°
2026-04-28 10:53 32.78162 37.14579 39986 ft 486 kts 194°
2026-04-28 10:53 32.72507 37.13618 39988 ft 486 kts 194°
2026-04-28 10:54 32.65812 37.12482 39992 ft 487 kts 194°
2026-04-28 10:54 32.59620 37.11433 39997 ft 486 kts 194°
2026-04-28 10:55 32.52920 37.10300 40002 ft 486 kts 194°
2026-04-28 10:55 32.46251 37.09174 40003 ft 485 kts 194°
2026-04-28 10:56 32.39535 37.08041 40003 ft 485 kts 194°
2026-04-28 10:56 32.32864 37.06918 40000 ft 485 kts 194°
2026-04-28 10:57 32.26205 37.05798 39995 ft 485 kts 194°
2026-04-28 10:57 32.19511 37.04674 39984 ft 484 kts 195°
2026-04-28 10:58 32.12835 37.03554 39982 ft 484 kts 195°
2026-04-28 10:58 32.06168 37.02438 39979 ft 485 kts 195°
2026-04-28 10:59 31.99503 37.01324 39975 ft 485 kts 195°
2026-04-28 10:59 31.92797 37.00204 39971 ft 485 kts 195°
2026-04-28 11:00 31.86120 36.99048 39965 ft 482 kts 199°
2026-04-28 11:00 31.79974 36.96388 39967 ft 464 kts 216°
2026-04-28 11:01 31.75108 36.92384 39968 ft 458 kts 222°
2026-04-28 11:01 31.70314 36.88112 39970 ft 458 kts 222°
2026-04-28 11:02 31.65241 36.83580 39972 ft 459 kts 223°
2026-04-28 11:02 31.60141 36.79023 39975 ft 459 kts 223°
2026-04-28 11:03 31.55124 36.74553 39975 ft 459 kts 222°
2026-04-28 11:03 31.50023 36.70084 39973 ft 458 kts 222°
2026-04-28 11:04 31.44967 36.65665 39972 ft 441 kts 222°
2026-04-28 11:04 31.40150 36.61454 39982 ft 432 kts 223°
2026-04-28 11:05 31.35317 36.57227 39987 ft 435 kts 222°
2026-04-28 11:05 31.30473 36.53006 39989 ft 435 kts 221°
2026-04-28 11:06 31.25505 36.48939 39993 ft 436 kts 221°
2026-04-28 11:06 31.20551 36.44906 39992 ft 435 kts 221°
2026-04-28 11:07 31.15563 36.40841 39994 ft 435 kts 221°
2026-04-28 11:07 31.10610 36.36805 39997 ft 436 kts 221°
2026-04-28 11:08 31.05653 36.32770 40022 ft 436 kts 221°
2026-04-28 11:08 31.00693 36.28737 40027 ft 435 kts 221°
2026-04-28 11:09 30.96639 36.25442 40023 ft 436 kts 221°
2026-04-28 11:09 30.91690 36.21427 40024 ft 433 kts 221°
2026-04-28 11:10 30.87131 36.17731 40027 ft 434 kts 221°
2026-04-28 11:10 30.82160 36.13705 40027 ft 436 kts 221°
2026-04-28 11:11 30.77487 36.09915 40024 ft 434 kts 221°
2026-04-28 11:11 30.72526 36.05894 40023 ft 434 kts 221°
2026-04-28 11:12 30.67801 36.02070 40024 ft 435 kts 221°
2026-04-28 11:12 30.62946 35.98146 40025 ft 433 kts 221°
2026-04-28 11:13 30.57998 35.94151 40029 ft 434 kts 221°
2026-04-28 11:13 30.53411 35.90453 40027 ft 434 kts 221°
2026-04-28 11:14 30.48438 35.86447 40026 ft 435 kts 221°
2026-04-28 11:14 30.43491 35.82470 40028 ft 435 kts 221°
2026-04-28 11:15 30.38515 35.78473 40028 ft 434 kts 221°
2026-04-28 11:15 30.33578 35.74513 40025 ft 434 kts 221°
2026-04-28 11:16 30.28582 35.70509 40029 ft 434 kts 221°
2026-04-28 11:16 30.23640 35.66555 40036 ft 432 kts 221°
2026-04-28 11:17 30.18691 35.62600 40035 ft 435 kts 222°
2026-04-28 11:17 30.13710 35.58623 40034 ft 434 kts 221°
2026-04-28 11:18 30.08577 35.54901 40037 ft 439 kts 218°
2026-04-28 11:18 30.03359 35.51294 40036 ft 436 kts 219°
2026-04-28 11:19 29.98147 35.47672 40035 ft 438 kts 218°
2026-04-28 11:19 29.92946 35.44053 40027 ft 436 kts 219°
2026-04-28 11:20 29.87747 35.40434 40011 ft 434 kts 219°
2026-04-28 11:20 29.82613 35.36861 40008 ft 434 kts 219°
2026-04-28 11:21 29.77435 35.33258 40023 ft 438 kts 218°
2026-04-28 11:21 29.72718 35.29982 40022 ft 436 kts 218°
2026-04-28 11:22 29.67569 35.26410 40024 ft 434 kts 219°
2026-04-28 11:22 29.62659 35.23006 40020 ft 436 kts 219°
2026-04-28 11:23 29.57745 35.19032 40011 ft 424 kts 230°
2026-04-28 11:23 29.53890 35.14043 39999 ft 417 kts 235°
2026-04-28 11:24 29.50206 35.09047 39977 ft 419 kts 235°
2026-04-28 11:24 29.46681 35.04279 39967 ft 417 kts 235°
2026-04-28 11:25 29.42943 34.99230 39878 ft 414 kts 235°
2026-04-28 11:25 29.40930 34.96903 39119 ft 418 kts 227°
2026-04-28 11:25 29.38577 34.94886 37883 ft 428 kts 222°
2026-04-28 11:25 29.36112 34.92942 37089 ft 429 kts 222°
2026-04-28 11:26 29.33661 34.91016 36287 ft 431 kts 222°
2026-04-28 11:26 29.31187 34.89070 35400 ft 435 kts 221°
2026-04-28 11:26 29.28717 34.87126 34458 ft 440 kts 220°
2026-04-28 11:26 29.26169 34.85121 33491 ft 444 kts 220°
2026-04-28 11:27 29.23631 34.83125 32598 ft 449 kts 219°
2026-04-28 11:27 29.21054 34.81098 31660 ft 455 kts 219°
2026-04-28 11:27 29.18433 34.79037 30649 ft 461 kts 218°
2026-04-28 11:27 29.15823 34.76988 29993 ft 457 kts 218°
2026-04-28 11:28 29.13229 34.74954 29387 ft 452 kts 218°
2026-04-28 11:28 29.10637 34.72922 28767 ft 446 kts 218°
2026-04-28 11:28 29.08105 34.70938 28171 ft 441 kts 218°
2026-04-28 11:28 29.05577 34.68957 27576 ft 436 kts 218°
2026-04-28 11:29 29.03205 34.66891 26995 ft 427 kts 225°
2026-04-28 11:29 29.01161 34.64517 26421 ft 420 kts 230°
2026-04-28 11:29 28.99195 34.62044 25820 ft 415 kts 231°
2026-04-28 11:29 28.97293 34.59643 25234 ft 411 kts 231°
2026-04-28 11:30 28.95384 34.57235 24646 ft 406 kts 231°
2026-04-28 11:30 28.91577 34.52437 23438 ft 415 kts 230°
2026-04-28 11:30 28.89464 34.50178 22828 ft 415 kts 221°
2026-04-28 11:31 28.87126 34.48315 22453 ft 409 kts 217°
2026-04-28 11:31 28.84726 34.46522 22165 ft 412 kts 217°
2026-04-28 11:31 28.82344 34.44747 21807 ft 412 kts 217°
2026-04-28 11:31 28.79944 34.42961 21431 ft 411 kts 217°
2026-04-28 11:32 28.78231 34.41687 21160 ft 409 kts 217°
2026-04-28 11:32 28.76094 34.40147 20879 ft 406 kts 213°
2026-04-28 11:32 28.73770 34.38857 20844 ft 410 kts 208°
2026-04-28 11:32 28.71160 34.37518 20830 ft 412 kts 208°
2026-04-28 11:33 28.68509 34.36165 20822 ft 412 kts 208°
2026-04-28 11:33 28.65881 34.34824 20812 ft 412 kts 207°
2026-04-28 11:33 28.63295 34.33506 20824 ft 412 kts 208°
2026-04-28 11:33 28.60671 34.32168 20655 ft 414 kts 207°
2026-04-28 11:34 28.58021 34.30818 20120 ft 414 kts 207°
2026-04-28 11:34 28.55615 34.29593 19528 ft 411 kts 207°
2026-04-28 11:34 28.52988 34.28257 18894 ft 408 kts 207°
2026-04-28 11:34 28.50768 34.27129 18358 ft 405 kts 207°
2026-04-28 11:35 28.48227 34.25837 17737 ft 401 kts 207°
2026-04-28 11:35 28.45899 34.24655 17182 ft 398 kts 207°
2026-04-28 11:35 28.43367 34.23370 16555 ft 395 kts 207°
2026-04-28 11:35 28.40872 34.22104 15931 ft 393 kts 207°
2026-04-28 11:36 28.38380 34.20840 15326 ft 390 kts 206°
2026-04-28 11:36 28.35903 34.19584 14713 ft 388 kts 206°
2026-04-28 11:36 28.33466 34.18350 14119 ft 385 kts 206°
2026-04-28 11:36 28.31015 34.17108 13513 ft 384 kts 206°
2026-04-28 11:37 28.28569 34.15870 12886 ft 383 kts 206°
2026-04-28 11:37 28.26167 34.14654 12284 ft 381 kts 206°
2026-04-28 11:37 28.23737 34.13425 11658 ft 380 kts 206°
2026-04-28 11:37 28.21347 34.12217 11061 ft 378 kts 206°
2026-04-28 11:38 28.18956 34.11009 10836 ft 364 kts 206°
2026-04-28 11:38 28.16700 34.09872 10748 ft 348 kts 206°
2026-04-28 11:38 28.14545 34.08785 10661 ft 334 kts 206°
2026-04-28 11:38 28.12441 34.07725 10514 ft 321 kts 206°
2026-04-28 11:39 28.10442 34.06717 10400 ft 311 kts 206°
2026-04-28 11:39 28.08491 34.05734 10261 ft 302 kts 206°
2026-04-28 11:39 28.06587 34.04774 10110 ft 293 kts 206°
2026-04-28 11:39 28.04744 34.03846 9871 ft 289 kts 206°
2026-04-28 11:40 28.02917 34.02925 9516 ft 289 kts 206°
2026-04-28 11:40 28.01062 34.01990 9181 ft 290 kts 206°
2026-04-28 11:40 27.99216 34.01060 8842 ft 290 kts 206°
2026-04-28 11:40 27.97380 34.00135 8519 ft 289 kts 206°
2026-04-28 11:41 27.95534 33.99206 8192 ft 289 kts 205°
2026-04-28 11:41 27.93667 33.98447 7981 ft 283 kts 189°
2026-04-28 11:41 27.91764 33.98561 7941 ft 271 kts 162°
2026-04-28 11:41 27.90135 33.99553 7914 ft 258 kts 140°
2026-04-28 11:42 27.88865 34.00903 7880 ft 246 kts 131°
2026-04-28 11:42 27.87750 34.02306 7857 ft 234 kts 128°
2026-04-28 11:42 27.86729 34.03693 7770 ft 223 kts 127°
2026-04-28 11:42 27.85959 34.04765 7577 ft 222 kts 126°
2026-04-28 11:43 27.84982 34.06131 7279 ft 222 kts 126°
2026-04-28 11:43 27.84023 34.07472 7024 ft 220 kts 126°
2026-04-28 11:43 27.83095 34.08769 6775 ft 219 kts 126°
2026-04-28 11:43 27.82138 34.10107 6530 ft 217 kts 126°
2026-04-28 11:44 27.81195 34.11424 6259 ft 217 kts 126°
2026-04-28 11:44 27.80243 34.12767 5983 ft 216 kts 122°
2026-04-28 11:44 27.79745 34.14307 5673 ft 210 kts 89°
2026-04-28 11:44 27.80010 34.15907 5358 ft 207 kts 71°
2026-04-28 11:45 27.80413 34.17466 5123 ft 205 kts 71°
2026-04-28 11:45 27.80817 34.19009 4871 ft 204 kts 70°
2026-04-28 11:45 27.81217 34.20542 4623 ft 204 kts 70°
2026-04-28 11:45 27.81665 34.22054 4338 ft 203 kts 60°
2026-04-28 11:46 27.82457 34.23351 4069 ft 199 kts 46°
2026-04-28 11:46 27.83430 34.24448 3797 ft 195 kts 40°
2026-04-28 11:46 27.84403 34.25440 3537 ft 179 kts 39°
2026-04-28 11:46 27.85303 34.26341 3305 ft 169 kts 38°
2026-04-28 11:47 27.86158 34.27209 3077 ft 162 kts 39°
2026-04-28 11:47 27.86973 34.28052 2836 ft 157 kts 39°
2026-04-28 11:47 27.87781 34.28882 2593 ft 153 kts 39°
2026-04-28 11:47 27.88548 34.29676 2379 ft 148 kts 38°
2026-04-28 11:48 27.89298 34.30452 2160 ft 144 kts 38°
2026-04-28 11:48 27.90019 34.31196 2003 ft 134 kts 38°
2026-04-28 11:48 27.90700 34.31905 1784 ft 133 kts 38°
2026-04-28 11:48 27.91393 34.32612 1574 ft 134 kts 38°
2026-04-28 11:49 27.92076 34.33333 1391 ft 133 kts 39°
2026-04-28 11:49 27.92761 34.34038 1214 ft 131 kts 38°
2026-04-28 11:49 27.93430 34.34726 1040 ft 131 kts 38°
2026-04-28 11:49 27.94101 34.35422 863 ft 131 kts 39°
2026-04-28 11:50 27.94772 34.36123 694 ft 130 kts 38°
2026-04-28 11:50 27.95437 34.36801 548 ft 128 kts 39°
2026-04-28 11:50 27.96091 34.37489 382 ft 128 kts 39°
2026-04-28 11:50 27.96754 34.38170 218 ft 128 kts 38°
2026-04-28 11:51 27.97382 34.38816 164 ft 105 kts 42°
2026-04-28 11:51 27.97829 34.39281 164 ft 72 kts 41°
2026-04-28 11:51 27.98108 34.39573 164 ft 43 kts 43°
2026-04-28 11:51 27.98287 34.39758 164 ft 22 kts 43°
2026-04-28 11:52 27.98383 34.39859 164 ft 14 kts 42°
2026-04-28 11:52 27.98463 34.39940 164 ft 16 kts 40°
2026-04-28 11:52 27.98543 34.39950 164 ft 9 kts 330°
2026-04-28 11:52 27.98598 34.39894 164 ft 11 kts 310°
2026-04-28 11:53 27.98616 34.39808 164 ft 13 kts 240°
2026-04-28 11:53 27.98545 34.39728 164 ft 15 kts 222°
2026-04-28 11:53 27.98457 34.39637 164 ft 18 kts 222°
2026-04-28 11:53 27.98357 34.39533 164 ft 20 kts 223°
2026-04-28 11:54 27.98246 34.39416 164 ft 22 kts 223°
2026-04-28 11:54 27.98124 34.39289 164 ft 24 kts 223°
2026-04-28 11:54 27.97990 34.39147 164 ft 27 kts 223°
2026-04-28 11:54 27.97901 34.39054 164 ft 17 kts 223°
2026-04-28 11:55 27.97811 34.38961 164 ft 15 kts 220°
2026-04-28 11:55 27.97739 34.38884 164 ft 6 kts 223°
2026-04-28 11:55 27.97721 34.38860 164 ft 2 kts 243°
2026-04-28 11:55 27.97720 34.38833 164 ft 4 kts 287°
2026-04-28 11:56 27.97741 34.38806 164 ft 4 kts 313°
2026-04-28 11:56 27.97757 34.38786 164 ft 0 kts 312°
2026-04-28 11:56 27.97757 34.38787 164 ft 0 kts 312°